Location: Downe
(51.3167°N, 0.0500°E)
Time: 07:25:25
(UTC+00:00)

Meteor 2-20 Rocket - Pass Details

Date: 17 November 2019
Orbit: 941 x 959 km, 82.5° (Epoch: 15 December)

Event Time Altitude Azimuth Distance (km) Brightness Sun altitude
Rises 04:36:50 0° 349° (N) 3,654 7.4 -25.2°
Reaches altitude 10° 04:39:21 10° 350° (N) 2,704 6.7 -24.8°
Maximum altitude 04:45:34 88° 80° (E) 967 4.4 -23.8°
Drops below altitude 10° 04:51:44 10° 171° (S) 2,684 6.9 -22.8°
Sets 04:54:13 0° 171° (S) 3,624 7.6 -22.5°
